Location: Laguna de la Cañada del Gallo
(40.3974°N, 5.2096°W)
Time: 08:49:31
(UTC+00:00)

Cosmos 44 - Visible Passes

Search period start: 22 July 2024 00:00
Search period end: 01 August 2024 00:00
Orbit: 581 x 774 km, 65.1° (Epoch: 21 July)

Date Brightness Start Highest point End Pass type
(mag) Time Alt. Az. Time Alt. Az. Time Alt. Az.
22 Jul 5.4 04:21:31 10° NNW 04:25:34 30° NE 04:29:27 10° ESE visible
22 Jul 3.8 20:21:06 10° SW 20:26:23 72° WNW 20:31:29 10° NNE visible
22 Jul 6.7 22:05:54 10° WNW 22:08:23 13° NW 22:10:50 10° N visible
23 Jul 6.6 03:17:47 10° N 03:20:02 13° NE 03:22:13 10° ENE visible
23 Jul 5.7 20:58:18 10° WSW 21:02:49 28° NW 21:07:11 10° NNE visible
24 Jul 5.2 03:52:42 10° NNW 03:56:48 31° NE 04:00:43 10° ESE visible
24 Jul 6.8 21:37:19 10° WNW 21:39:38 13° NW 21:41:55 10° N visible
25 Jul 6.4 02:48:54 10° N 02:51:16 14° NE 02:53:35 10° ENE visible
25 Jul 3.0 04:28:33 10° NNW 04:33:07 87° WSW 04:37:27 10° SSE visible
25 Jul 5.9 20:29:36 10° WSW 20:34:03 27° NW 20:38:20 10° N visible
26 Jul 5.0 03:23:53 10° NNW 03:28:02 32° NE 03:31:58 10° ESE visible
26 Jul 6.7 21:08:45 10° WNW 21:10:53 12° NW 21:12:59 10° NNW visible
27 Jul 6.2 02:20:01 10° N 02:22:31 14° NE 02:24:56 10° ENE visible
27 Jul 2.9 03:59:46 10° NNW 04:04:19 83° WSW 04:08:38 10° SSE visible
28 Jul 4.8 02:55:04 10° NNW 02:59:14 34° NE 03:03:13 10° ESE visible
28 Jul 4.1 04:36:33 10° WNW 04:40:10 24° WSW 04:43:41 10° SSW visible
28 Jul 6.7 20:40:12 10° WNW 20:42:08 12° NW 20:44:02 10° NNW visible
29 Jul 6.1 01:51:08 10° N 01:53:44 15° NE 01:56:16 10° ENE visible
29 Jul 2.9 03:30:58 10° NW 03:35:30 78° WSW 03:39:48 10° SSE visible
30 Jul 4.6 02:26:14 10° NNW 02:30:27 35° NE 02:34:28 10° ESE visible
30 Jul 4.1 04:07:48 10° WNW 04:11:20 23° WSW 04:14:46 10° SSW visible
30 Jul 6.7 20:11:40 10° NW 20:13:22 11° NW 20:15:03 10° NNW visible
31 Jul 5.9 01:22:16 10° N 01:24:58 15° NE 01:27:36 10° ENE visible
31 Jul 2.9 03:02:11 10° NW 03:06:41 74° WSW 03:08:21 37° SSE visible
